Flag for United Kingdom Weather past 2 weeks in Milton Keynes, England, United Kingdom

Now
46 °F

Rain. Low clouds.


Feels Like: 39 °F
Forecast: N/A
Wind: 17 mph from South

Location: Luton Airport

Current Time: Feb 28, 2015 at 9:24:50 PM

Latest Report: Feb 28, 2015 at 8:50 PM


Visibility: 5 mi

Pressure: 29.45 "Hg

Humidity: 93%

Dew point: 45 °F

Location of Milton KeynesLocation

Historic Weather in Milton Keynes — Graph

°F

Milton Keynes temperature yesterday

Maximum temperature yesterday: 45 °F (at 12:50 PM)
Minimum temperature yesterday: 32 °F (at 5:20 AM)
Average temperature yesterday: 39 °F

Past Weeks' High & Low Weather Summary

 TemperatureHumidityPressure
High52 °F (Feb 26, 1:20 PM)100% (Feb 13, 10:20 PM)30.72 "Hg (Feb 13, 10:20 PM)
Low30 °F (Feb 18, 2:50 AM)53% (Feb 24, 2:50 PM)29.18 "Hg (Feb 22, 10:20 PM)
Average41 °F87%29.87 "Hg
* Reported Feb 13 8:20 PM — Feb 28 8:20 PM, Milton Keynes, Weather by CustomWeather, © 2015

Note: Actual official high and low records may vary slightly from our data, if they occured in-between our weather recording intervals... More about our weather records

Advertising

Milton Keynes weather history for previous 24 hours

 ConditionsComfort  
Time TempWeatherWind HumidityBarometerVisibility
8:20 PM
Sat, Feb 28
46 °FRain. Low clouds.17 mph93%29.45 "Hg5 mi
7:50 PM46 °FRain. Passing clouds.16 mph93%29.47 "Hg5 mi
7:20 PM46 °FRain. Passing clouds.17 mph93%29.50 "Hg5 mi
6:50 PM48 °FLight rain. Passing clouds.17 mph82%29.50 "HgN/A
6:20 PM46 °FPassing clouds.17 mph87%29.53 "HgN/A
5:50 PM46 °FLight rain. Passing clouds.16 mph87%29.56 "HgN/A
5:20 PM48 °FOvercast.17 mph82%29.56 "HgN/A
4:50 PM48 °FPartly sunny.15 mph87%29.59 "HgN/A
4:20 PM48 °FPartly sunny.17 mph87%29.59 "HgN/A
3:50 PM48 °FPartly sunny.14 mph87%29.62 "HgN/A
3:20 PM48 °FPartly sunny.15 mph87%29.62 "HgN/A
2:50 PM48 °FPartly sunny.16 mph94%29.65 "HgN/A
2:20 PM46 °FLow clouds.15 mph100%29.65 "HgN/A
1:50 PM46 °FFog.14 mph100%29.68 "Hg3 mi
1:20 PM46 °FLow clouds.14 mph93%29.68 "Hg4 mi
12:50 PM46 °FLow clouds.13 mph93%29.71 "Hg5 mi
12:20 PM45 °FFog.13 mph100%29.74 "Hg2 mi
11:50 AM45 °FFog.13 mph100%29.74 "Hg2 mi
11:20 AM45 °FFog.12 mph93%29.77 "Hg3 mi
10:50 AM45 °FMore clouds than sun.12 mph93%29.77 "HgN/A
10:20 AM43 °FMore clouds than sun.13 mph100%29.80 "HgN/A
9:50 AM43 °FMore clouds than sun.13 mph100%29.80 "Hg5 mi
9:20 AM43 °FFog.14 mph93%29.83 "Hg3 mi
8:50 AM43 °FFog.14 mph93%29.83 "Hg3 mi
8:20 AM43 °FLow clouds.14 mph93%29.83 "Hg4 mi
7:50 AM41 °FLow clouds.15 mph100%29.83 "Hg5 mi
7:20 AM41 °FPartly sunny.14 mph100%29.83 "HgN/A
6:50 AM41 °FLow clouds.13 mph93%29.83 "HgN/A
6:20 AM41 °FOvercast.14 mph93%29.83 "HgN/A
5:50 AM41 °FOvercast.13 mph87%29.86 "HgN/A
5:20 AM41 °FPassing clouds.13 mph87%29.89 "HgN/A
4:50 AM41 °FPassing clouds.14 mph93%29.89 "HgN/A
4:20 AM41 °FMostly cloudy.13 mph93%29.89 "Hg4 mi
3:50 AM41 °FLow clouds.13 mph93%29.92 "Hg4 mi
3:20 AM41 °FLow clouds.12 mph93%29.92 "Hg3 mi
2:50 AM41 °FLow clouds.10 mph93%29.95 "Hg5 mi
2:20 AM41 °FLow clouds.10 mph93%29.95 "Hg6 mi
1:50 AM41 °FLow clouds.10 mph87%29.98 "HgN/A
1:20 AM41 °FPartly cloudy.9 mph87%29.98 "HgN/A
12:50 AM39 °FPartly cloudy.8 mph93%29.98 "HgN/A
12:20 AM39 °FPassing clouds.8 mph87%30.01 "HgN/A
11:50 PM
Fri, Feb 27
39 °FOvercast.7 mph87%30.01 "HgN/A
11:20 PM37 °FClear.7 mph87%30.04 "Hg10 mi
10:50 PM37 °FClear.7 mph87%30.04 "Hg10 mi
10:20 PM39 °FClear.6 mph81%30.04 "Hg10 mi
9:50 PM39 °FClear.8 mph81%30.04 "Hg10 mi
9:20 PM39 °FClear.7 mph75%30.04 "Hg10 mi
Weather by CustomWeather, © 2015

See weather overviewHow to use our weather pages